[[{"header":{"parameterUnit":"m.s-1","parameterCategory":1,"la1":30.2991,"la2":30.254,"lo1":-89.0895,"lo2":-89.0444,"dy":0.0017,"dx":0.0017,"nx":28,"ny":28,"refTime":"2024-06-09T03:00:00:Z","depth":0,"parameterNumber":2,"parameterNumberName":"U-component_of_WINDS"},"data":[0,0,0,0,0,0,0,0,0,0,0,0,0,0,0,0,0,0,0,0,0,0,0,0,0,0,0,0,0,0,0,0,0,0,0,0,0,0,0,0,0,0,0,0,0,0,0,0,0,0,0,0,0,0,0,0,0,0,1.1967,1.1968,0,1.2065,1.2066,1.2067,1.2085,1.2085,1.2084,1.2083,1.2185,1.2188,1.2191,0,0,0,0,0,0,0,0,0,0,0,0,0,1.1795,1.1798,1.1966,1.1968,1.1969,1.2064,1.2066,1.2067,1.2086,1.2085,1.2084,1.2083,1.2183,1.2188,1.2192,0,0,0,0,0,0,0,0,0,0,0,0,0,1.1879,1.1799,1.1966,1.199,1.1993,1.2064,1.2066,1.2067,1.2086,1.2085,1.2083,1.2082,1.2182,1.2187,1.2192,1.2248,0,0,1.2208,1.221,0,0,0,0,0,0,0,0,1.1874,1.1885,1.1985,1.1988,1.1992,1.2062,1.2043,1.2128,1.2086,1.205,1.2083,1.2082,1.2145,1.2153,1.2174,1.2252,1.2257,1.2208,1.2212,1.2214,1.2215,0,0,0,0,0,0,0,1.1868,1.1881,1.2005,1.1986,1.1991,1.1995,1.2006,1.2059,1.2103,1.2053,1.2055,1.2066,1.2146,1.2169,1.2176,1.2258,1.2208,1.2213,1.2216,1.2218,1.2385,1.2386,0,0,0,0,0,0,1.1858,1.1876,1.2002,1.2008,1.1929,1.1999,1.2011,1.204,1.2103,1.2111,1.2067,1.2067,1.2161,1.217,1.218,1.2248,1.2214,1.2219,1.2222,1.2384,1.2385,1.2387,0,0,0,0,0,0,1.1854,1.1869,1.1998,1.1943,1.1959,1.2003,1.2036,1.2043,1.2065,1.2113,1.2121,1.2082,1.216,1.2173,1.223,1.2251,1.2221,1.2226,1.2382,1.2384,1.2386,1.2384,0,0,0,0,0,0,1.1849,1.1868,1.189,1.1943,1.1962,1.2047,1.2038,1.2046,1.2074,1.2075,1.2129,1.2137,1.216,1.2222,1.2235,1.2258,1.223,1.2381,1.2383,1.2386,1.2382,1.2385,1.2388,0,0,0,0,0,1.1843,1.1886,1.1891,1.1906,1.199,1.2048,1.2059,1.2085,1.2076,1.2098,1.2128,1.2135,1.2247,1.2228,1.2243,1.2267,1.2379,1.2382,1.2385,1.2381,1.2385,1.2388,0,0,0,0,0,0,1.1834,1.1893,1.1899,1.196,1.1999,1.2051,1.208,1.2088,1.2131,1.2129,1.216,1.2172,1.2227,1.2253,1.2231,1.2323,1.2313,1.2319,1.2304,1.2308,1.2311,1.2303,1.2234,0,0,0,0,0,1.1839,1.1881,1.193,1.1979,1.1998,1.2035,1.2062,1.2078,1.2119,1.2136,1.217,1.2211,1.2255,1.2283,1.2326,1.2386,1.2398,1.241,1.2413,1.2415,1.242,1.2452,1.2458,1.2397,1.2397,1.2397,0,0,1.185,1.1888,1.1912,1.1978,1.201,1.2053,1.2049,1.2095,1.2126,1.2143,1.2199,1.2225,1.2272,1.233,1.2358,1.2354,1.2439,1.2419,1.2421,1.2424,1.2456,1.2461,1.2466,1.2399,1.2399,1.2398,0,0,1.1892,1.1925,1.1968,1.2,1.2048,1.2072,1.2082,1.2133,1.2151,1.2207,1.222,1.2258,1.2334,1.2366,1.2392,1.2444,1.2451,1.2457,1.2473,1.2504,1.2508,1.2513,1.253,1.2536,1.2462,1.2462,1.2462,0,1.1899,1.1963,1.1989,1.2034,1.2062,1.2078,1.2122,1.2151,1.2211,1.223,1.2225,1.2319,1.2352,1.2417,1.2429,1.245,1.2462,1.2451,1.2506,1.251,1.2515,1.2531,1.2538,1.2462,1.2462,1.2462,1.2462,0,1.1969,1.2014,1.2043,1.2099,1.2131,1.2175,1.2207,1.2236,1.2249,1.2273,1.2329,1.2369,1.242,1.2437,1.2451,1.2504,1.2499,1.2499,1.2489,1.252,1.2536,1.2543,1.2462,1.2462,1.2462,1.2462,0,0,1.2008,1.2077,1.2087,1.2112,1.2166,1.22,1.2244,1.2293,1.2317,1.2357,1.2394,1.2457,1.2457,1.2487,1.2504,1.2531,1.2568,1.2528,1.2529,1.2533,1.2627,1.2625,1.2632,1.2573,1.2575,1.2576,1.2622,0,1.2055,1.2134,1.2158,1.2223,1.2264,1.2279,1.2317,1.2354,1.2378,1.2415,1.2442,1.2485,1.2483,1.25,1.2528,1.2557,1.2587,1.2554,1.2607,1.2609,1.2594,1.2641,1.264,1.2683,1.2629,1.263,1.2631,0,1.212,1.216,1.223,1.2276,1.2294,1.2328,1.2374,1.241,1.2451,1.2467,1.2499,1.2514,1.256,1.2547,1.2611,1.2588,1.2611,1.2629,1.2631,1.2636,1.2621,1.2646,1.2697,1.2703,1.2641,1.264,1.264,0,1.2139,1.2211,1.2261,1.2283,1.2339,1.2362,1.2386,1.2427,1.2454,1.2494,1.2512,1.2557,1.2582,1.2616,1.2643,1.2632,1.2703,1.2693,1.2717,1.2716,1.2731,1.2729,1.2784,1.2747,1.2747,1.2747,1.2747,0,1.2188,1.223,1.2271,1.2301,1.2348,1.2375,1.2421,1.2446,1.2481,1.2517,1.2534,1.2567,1.26,1.2638,1.2659,1.2707,1.2719,1.2732,1.2737,1.273,1.2728,1.2745,1.2742,1.2749,1.2749,1.2748,1.2748,0,1.2217,1.2247,1.2302,1.235,1.2363,1.2395,1.2436,1.2467,1.2491,1.2536,1.2548,1.2586,1.2631,1.266,1.2718,1.2732,1.2785,1.279,1.277,1.2772,1.2794,1.2791,1.2861,1.2871,1.2828,1.2828,1.2828,0,1.2246,1.2278,1.2329,1.2354,1.2378,1.2418,1.2446,1.2473,1.2501,1.255,1.2574,1.262,1.2658,1.2729,1.2762,1.2805,1.2811,1.2832,1.2818,1.2809,1.281,1.2807,1.281,1.2834,1.2835,1.2835,1.2835,0,1.2294,1.2306,1.2345,1.2388,1.242,1.2456,1.2492,1.2511,1.2545,1.2576,1.2621,1.265,1.2709,1.2753,1.28,1.2825,1.2836,1.2839,1.2847,1.284,1.2827,1.2833,1.2775,1.2838,1.2837,1.2837,1.2837,1.2837,1.2323,1.2351,1.2391,1.2433,1.2463,1.2495,1.2526,1.2553,1.2591,1.264,1.2654,1.2701,1.2741,1.2805,1.283,1.2868,1.2865,1.2877,1.2879,1.2881,1.2881,1.2821,1.2876,1.2876,1.2876,1.2876,1.2876,0,1.237,1.2396,1.2434,1.2483,1.2516,1.2522,1.2562,1.2589,1.263,1.2666,1.2702,1.2754,1.2797,1.2833,1.2878,1.29,1.2906,1.2911,1.2909,1.2915,1.2881,1.2869,1.2906,1.2906,1.2906,1.2905,1.2905,1.2905,1.2398,1.2446,1.2463,1.2525,1.2551,1.2597,1.2619,1.2649,1.2677,1.2734,1.2769,1.2792,1.2828,1.2875,1.2914,1.2924,1.2939,1.2943,1.2953,1.2921,1.2917,1.2914,1.2903,1.2946,1.2946,1.2984,1.2984,1.2984]},{"header":{"parameterUnit":"m.s-1","parameterCategory":1,"la1":30.2991,"la2":30.254,"lo1":-89.0895,"lo2":-89.0444,"dy":0.0017,"dx":0.0017,"nx":28,"ny":28,"refTime":"2024-06-09T03:00:00:Z","depth":0,"parameterNumber":3,"parameterNumberName":"V-component_of_WINDS"},"data":[0,0,0,0,0,0,0,0,0,0,0,0,0,0,0,0,0,0,0,0,0,0,0,0,0,0,0,0,0,0,0,0,0,0,0,0,0,0,0,0,0,0,0,0,0,0,0,0,0,0,0,0,0,0,0,0,0,0,3.725,3.725,0,3.7291,3.7291,3.7292,3.7241,3.7239,3.7237,3.7236,3.7274,3.7277,3.7279,0,0,0,0,0,0,0,0,0,0,0,0,0,3.7122,3.7125,3.725,3.725,3.7251,3.7291,3.7291,3.7292,3.7241,3.7239,3.7237,3.7235,3.7273,3.7276,3.728,0,0,0,0,0,0,0,0,0,0,0,0,0,3.7172,3.7125,3.725,3.723,3.7229,3.7291,3.7292,3.7292,3.7242,3.7239,3.7236,3.7234,3.7272,3.7276,3.728,3.7361,0,0,3.7293,3.7294,0,0,0,0,0,0,0,0,3.7169,3.7176,3.7233,3.7232,3.7231,3.7258,3.726,3.7315,3.7243,3.7237,3.7236,3.7232,3.7271,3.7275,3.7288,3.7363,3.7365,3.7293,3.7296,3.7297,3.7299,0,0,0,0,0,0,0,3.7166,3.7174,3.7266,3.7234,3.7232,3.7218,3.7222,3.7271,3.7269,3.7237,3.7234,3.7239,3.7269,3.7285,3.7289,3.7365,3.7293,3.7297,3.7299,3.7301,3.7506,3.7509,0,0,0,0,0,0,3.7165,3.7172,3.7265,3.7267,3.7192,3.7223,3.7227,3.7252,3.7268,3.7268,3.7242,3.7237,3.7279,3.7284,3.729,3.7385,3.7297,3.7301,3.7304,3.7503,3.7507,3.751,0,0,0,0,0,0,3.7162,3.7174,3.7263,3.7219,3.7229,3.7228,3.7256,3.7254,3.7269,3.7272,3.7271,3.7258,3.7277,3.7284,3.7344,3.7385,3.7303,3.7307,3.75,3.7504,3.7509,3.7576,0,0,0,0,0,0,3.7159,3.7173,3.7205,3.722,3.7231,3.7318,3.7259,3.7257,3.7277,3.7271,3.7287,3.7286,3.7275,3.7338,3.7348,3.739,3.731,3.7496,3.7502,3.7507,3.757,3.7582,3.7592,0,0,0,0,0,3.7155,3.7222,3.7207,3.7219,3.7272,3.732,3.7327,3.7314,3.7281,3.7312,3.7313,3.7286,3.738,3.7344,3.7355,3.7399,3.7493,3.75,3.7507,3.7565,3.758,3.7592,0,0,0,0,0,0,3.7212,3.7224,3.7207,3.7282,3.7301,3.7312,3.7351,3.733,3.7358,3.7351,3.7332,3.7336,3.7399,3.7405,3.7366,3.7477,3.7431,3.744,3.7471,3.7485,3.7496,3.7493,3.7313,0,0,0,0,0,3.7233,3.7273,3.7281,3.7346,3.7356,3.7352,3.7373,3.7361,3.7379,3.7386,3.7392,3.7409,3.7442,3.7464,3.7495,3.7571,3.7572,3.7606,3.7617,3.7626,3.7634,3.7672,3.7687,3.7532,3.7532,3.7532,0,0,3.7278,3.7289,3.7315,3.7358,3.7371,3.741,3.7359,3.7403,3.7432,3.7392,3.7449,3.7453,3.7471,3.7539,3.7569,3.7545,3.7677,3.7635,3.7642,3.7645,3.7681,3.7695,3.7708,3.7537,3.7536,3.7535,0,0,3.7379,3.7393,3.7447,3.7461,3.7482,3.7478,3.7492,3.7506,3.7507,3.7564,3.7534,3.7567,3.7625,3.7639,3.7653,3.7758,3.7733,3.7768,3.7827,3.7865,3.7877,3.7887,3.7923,3.7936,3.7776,3.7776,3.7777,0,3.7431,3.7491,3.7477,3.7524,3.7542,3.7509,3.7563,3.7577,3.7606,3.7619,3.7593,3.7664,3.7674,3.7743,3.7768,3.7782,3.7794,3.7766,3.7876,3.7887,3.7897,3.793,3.7944,3.778,3.778,3.778,3.7779,0,3.7553,3.7595,3.7636,3.7666,3.7689,3.774,3.7732,3.7756,3.7743,3.7742,3.7798,3.7809,3.784,3.7856,3.7843,3.7923,3.7908,3.788,3.7832,3.7916,3.7947,3.796,3.7786,3.7785,3.7784,3.7783,0,0,3.7691,3.7712,3.7728,3.774,3.776,3.7791,3.7838,3.787,3.7891,3.7912,3.795,3.7999,3.7973,3.7989,3.7977,3.801,3.809,3.7978,3.7978,3.7997,3.8177,3.8197,3.8212,3.8074,3.8077,3.8079,3.8175,0,3.7791,3.7875,3.7863,3.7943,3.798,3.7949,3.7989,3.8005,3.8005,3.8035,3.8035,3.8069,3.8033,3.8042,3.8074,3.8074,3.8126,3.8067,3.8107,3.8109,3.8103,3.8229,3.8251,3.8341,3.8187,3.8189,3.8191,0,3.7918,3.7944,3.8028,3.8041,3.8056,3.8093,3.812,3.815,3.8166,3.8164,3.8182,3.8163,3.8209,3.8162,3.8223,3.8183,3.8199,3.8201,3.8205,3.8207,3.8154,3.8233,3.8369,3.8382,3.821,3.8209,3.8207,0,3.8008,3.8064,3.8121,3.8133,3.8149,3.8176,3.8184,3.8197,3.8217,3.824,3.8252,3.828,3.8295,3.8317,3.8305,3.8272,3.8368,3.832,3.8365,3.8366,3.8386,3.8384,3.8525,3.8399,3.8399,3.8398,3.8398,0,3.812,3.8172,3.8161,3.8196,3.8253,3.8238,3.8294,3.8298,3.831,3.8344,3.8318,3.835,3.8334,3.8364,3.8356,3.8406,3.8414,3.8412,3.8408,3.8413,3.8413,3.8422,3.8415,3.8402,3.8401,3.8401,3.84,0,3.8229,3.8225,3.8284,3.8295,3.8299,3.834,3.8348,3.838,3.8378,3.842,3.843,3.8426,3.846,3.8451,3.8488,3.8482,3.8546,3.8536,3.8541,3.8538,3.8583,3.8578,3.8733,3.8752,3.8615,3.8616,3.8617,0,3.83,3.8339,3.8354,3.8376,3.8386,3.842,3.844,3.8427,3.8448,3.8468,3.8497,3.8529,3.8554,3.8609,3.8609,3.8636,3.8625,3.8678,3.8629,3.8632,3.8624,3.8621,3.8624,3.8687,3.8688,3.869,3.8691,0,3.8426,3.8421,3.8451,3.848,3.8504,3.8526,3.8545,3.8564,3.8552,3.8576,3.8611,3.8631,3.8668,3.8699,3.8725,3.8731,3.8708,3.8706,3.8718,3.8722,3.8723,3.8721,3.8565,3.8702,3.8701,3.87,3.87,3.8699,3.8517,3.8549,3.8565,3.8598,3.8611,3.863,3.866,3.8661,3.8691,3.8721,3.8711,3.875,3.8764,3.8795,3.8805,3.8834,3.8814,3.8831,3.8835,3.8839,3.8844,3.872,3.8839,3.8839,3.8838,3.8838,3.8838,0,3.8639,3.8647,3.8678,3.8706,3.8732,3.871,3.873,3.8753,3.8788,3.8803,3.8828,3.8867,3.8897,3.8899,3.8927,3.895,3.894,3.8958,3.8955,3.8956,3.8861,3.8848,3.8965,3.8965,3.8965,3.8965,3.8965,3.8965,3.8706,3.8759,3.8757,3.8816,3.8823,3.8862,3.8875,3.8891,3.8903,3.8948,3.8973,3.8975,3.8984,3.9012,3.9038,3.9038,3.9048,3.9069,3.9065,3.8976,3.8963,3.8951,3.8938,3.9072,3.9072,3.9157,3.9158,3.9158]}]]